모두
Billabong Stn Airport YBST 기상
There is no TAF data available at YBST or any nearby airports.
There is no METAR data available at YBST. Showing METAR data for YWWL (23 mi 서남).
최근 WWY METAR 이력(YBST에 대한 데이터 없음)
| Date | Time (AEST) | Flight Rules | Wind Dir. | Speed | Type | Height AGL (ft) | Visibility | Temp (°C) | Temp (°F) | Dew Point (°C) | Dew Point (°F) | Rel. Humid. | Pressure | Density Altitude | Remarks |
|---|---|---|---|---|---|---|---|---|---|---|---|---|---|---|---|
| 08-5월 | 14:00 | n/a | 250° | 15 kt | Missing | 15° | 59° | 8° | 46° | 63% | 1023 mb | 570 ft | |||
| 08-5월 | 13:00 | n/a | 250° | 15 kt | Missing | 15° | 59° | 8° | 46° | 63% | 1023 mb | 570 ft | |||
| 08-5월 | 12:00 | n/a | 250° | 16 kt | Missing | 15° | 59° | 8° | 46° | 63% | 1024 mb | 540 ft | |||
| 08-5월 | 11:00 | n/a | 260° | 14 kt | Missing | 14° | 57° | 7° | 44° | 63% | 1024 mb | 420 ft | |||
| 08-5월 | 10:00 | n/a | 270° | 11 kt | Missing | 12° | 53° | 7° | 44° | 71% | 1024 mb | 180 ft | |||
| 08-5월 | 09:00 | n/a | 260° | 11 kt | Missing | 11° | 51° | 7° | 44° | 76% | 1025 mb | 31 ft | |||
| 08-5월 | 08:00 | n/a | 260° | 8 kt | Missing | 9° | 48° | 5° | 41° | 76% | 1024 mb | -180 ft | |||
| 08-5월 | 07:00 | n/a | 260° | 7 kt | Missing | 8° | 46° | 4° | 39° | 76% | 1024 mb | -300 ft | |||
| 08-5월 | 06:00 | n/a | 260° | 12 kt | Missing | 7° | 44° | 4° | 39° | 81% | 1023 mb | -390 ft | |||
| 08-5월 | 05:00 | n/a | 270° | 11 kt | Missing | 7° | 44° | 3° | 37° | 76% | 1023 mb | -390 ft | |||
| 08-5월 | 04:00 | n/a | 260° | 10 kt | Missing | 8° | 46° | 3° | 37° | 71% | 1023 mb | -270 ft | |||
| 08-5월 | 03:00 | n/a | 260° | 11 kt | Missing | 8° | 46° | 3° | 37° | 71% | 1023 mb | -270 ft | |||
| 08-5월 | 02:00 | n/a | 270° | 10 kt | Missing | 8° | 46° | 2° | 35° | 66% | 1024 mb | -300 ft | |||
| 08-5월 | 01:00 | n/a | 280° | 7 kt | Missing | 7° | 44° | 2° | 35° | 70% | 1024 mb | -420 ft | |||
| 08-5월 | 00:00 | n/a | 280° | 7 kt | Missing | 6° | 42° | 1° | 33° | 70% | 1024 mb | -540 ft | |||
| 07-5월 | 23:00 | n/a | 260° | 7 kt | Missing | 7° | 44° | 1° | 33° | 66% | 1024 mb | -420 ft | |||
| 07-5월 | 22:00 | n/a | 260° | 8 kt | Missing | 7° | 44° | 1° | 33° | 66% | 1025 mb | -449 ft | |||
| 07-5월 | 21:00 | n/a | 260° | 7 kt | Missing | 7° | 44° | 1° | 33° | 66% | 1024 mb | -420 ft | |||
| 07-5월 | 20:00 | n/a | 250° | 7 kt | Missing | 7° | 44° | 1° | 33° | 66% | 1024 mb | -420 ft | |||
| 07-5월 | 19:00 | n/a | 270° | 6 kt | Missing | 7° | 44° | 0° | 32° | 61% | 1024 mb | -420 ft | |||
| 07-5월 | 18:00 | n/a | 220° | 8 kt | Missing | 9° | 48° | -1° | 30° | 49% | 1023 mb | -150 ft | |||
| 07-5월 | 17:00 | n/a | 220° | 16 kt | Missing | 11° | 51° | -1° | 30° | 43% | 1023 mb | 90 ft | |||
| 07-5월 | 16:00 | n/a | 230° | 17 kt | Missing | 12° | 53° | -2° | 28° | 38% | 1022 mb | 239 ft | |||
| 07-5월 | 15:00 | n/a | 220° | 18 kt | Missing | 12° | 53° | -2° | 28° | 38% | 1022 mb | 239 ft |
로그인
| 귀하의 브라우저는 지원되지 않습니다.. 브라우저를 업그레이드하세요 |
